AO-07 1 07530U 74089B 25260.95444637 -.00000027 00000-0 12506-3 0 9997 2 07530 101.9986 266.3011 0011921 291.6455 139.8223 12.53691581326400 AO-27 1 22825U 93061C 25260.63737238 .00000084 00000-0 49191-4 0 9992 2 22825 98.7271 322.6466 0008552 172.3893 187.7421 14.30829262668026 FO-29 1 24278U 96046B 25260.93574241 -.00000015 00000-0 17899-4 0 9993 2 24278 98.5581 141.5525 0350915 82.5657 281.5207 13.53253682436343 ISS 1 25544U 98067A 25260.83266141 .00008967 00000-0 16284-3 0 9990 2 25544 51.6329 207.8756 0004377 351.2823 8.8089 15.50360820529535 SO-50 1 27607U 02058C 25260.50744656 .00001607 00000-0 21355-3 0 9992 2 27607 64.5510 252.0143 0066488 313.0615 46.4935 14.81892450224037 AO-73 1 39444U 13066AE 25260.88072824 .00007931 00000-0 57187-3 0 9995 2 39444 97.7927 223.3117 0043086 50.4280 310.0738 15.03665259638658 IO-86 1 40931U 15052B 25151.18580175 .00001241 00000-0 78118-4 0 9996 2 40931 6.0006 24.0987 0012733 338.8432 21.1169 14.78805930523159 AO-91 1 43017U 17073E 25260.62319117 .00007436 00000-0 37012-3 0 9994 2 43017 97.5094 128.8905 0167781 184.6585 175.3091 15.06335764424265 PO-101 1 43678U 18084H 25261.01541199 .00001547 00000-0 13374-3 0 9993 2 43678 98.1079 81.0407 0008282 318.5236 41.5357 14.98766147375421 QO-100 1 43700U 18090A 25260.89419745 .00000124 00000-0 00000-0 0 9991 2 43700 0.0117 226.0474 0001449 352.5754 126.1818 1.00272730 24947 JO-97 1 43803U 18099AX 25260.72450868 .00012406 00000-0 52854-3 0 9990 2 43803 97.4565 318.9960 0008289 146.9547 213.2209 15.23075178372005 RS-44 1 44909U 19096E 25260.78207853 .00000017 00000-0 18210-4 0 9990 2 44909 82.5250 160.7239 0218506 61.3843 300.9048 12.79743538267508 CSS 1 48274U 21035A 25260.93387046 .00027452 00000-0 33682-3 0 9996 2 48274 41.4644 178.3607 0003351 4.5699 355.5169 15.59691529250628 HO-113 1 50466U 21131B 25260.96692397 .00000447 00000-0 15310-3 0 9993 2 50466 98.5082 349.8232 0004192 179.8078 180.3113 14.40925650195909 MO-122 1 60209U 24125G 25260.59249575 .00021246 00000-0 53552-3 0 9990 2 60209 97.2675 111.2692 0018462 133.6379 226.6402 15.39721572 67322 AO-123 1 61781U 24199AY 25260.90891601 .00007285 00000-0 25513-3 0 9998 2 61781 97.3390 127.3877 0014749 195.0287 165.0518 15.29686269 92212 SO-124 1 62690U 25009CK 25260.70635208 .00051496 00000-0 14135-2 0 9996 2 62690 97.4010 341.5785 0002872 129.1548 230.9952 15.37078541 37481 TEVEL2-9 1 63237U 25052AD 25260.67701624 .00011591 00000-0 52042-3 0 9996 2 63237 97.4213 153.0292 0009108 39.3529 320.8367 15.21292729 28447 TEVEL2-7 1 63238U 25052AE 25260.68415160 .00011377 00000-0 51221-3 0 9995 2 63238 97.4216 153.0241 0009215 39.4426 320.7479 15.21202537 28442 TEVEL2-8 1 63239U 25052AF 25260.68820861 .00011463 00000-0 51649-3 0 9994 2 63239 97.4215 153.0166 0009212 39.5536 320.6371 15.21173146 28441 SO-125 1 63492U 25052BN 25260.68605986 .00031022 00000-0 11314-2 0 9991 2 63492 97.4162 153.9681 0012398 37.6198 322.5906 15.28029555 28510 TEVEL2-4 1 63213U 25052D 25260.69262066 .00012716 00000-0 54417-3 0 9992 2 63213 97.4170 153.3640 0004014 32.8426 327.3059 15.22939248 28476 TEVEL2-5 1 63214U 25052E 25260.69501430 .00012425 00000-0 53237-3 0 9990 2 63214 97.4178 153.3620 0003928 34.7006 325.4486 15.22902279 28478 TEVEL2-6 1 63215U 25052F 25260.63407876 .00012911 00000-0 55375-3 0 9999 2 63215 97.4175 153.2937 0004050 34.9256 325.2245 15.22859757 28464 TEVEL2-1 1 63217U 25052H 25260.66047930 .00013099 00000-0 56598-3 0 9991 2 63217 97.4147 153.1980 0004594 41.6589 318.4997 15.22601575 28460 TEVEL2-3 1 63218U 25052J 25260.92339789 .00013102 00000-0 56583-3 0 9996 2 63218 97.4150 153.4596 0004661 41.6743 318.4848 15.22616878 28500 TEVEL2-2 1 63219U 25052K 25260.66119544 .00013027 00000-0 56294-3 0 9998 2 63219 97.4148 153.1985 0004637 41.9271 318.2320 15.22598137 28464 NO-44 1 26931U 01043C 25260.95780618 .00000159 00000-0 90687-4 0 9997 2 26931 67.0496 228.2992 0007061 275.1057 84.9239 14.31779470251477 IO-117 1 53106U 22080B 25119.54530882 -.00000003 00000-0 00000+0 0 9993 2 53106 70.1441 82.5809 0008360 32.9040 327.2139 6.42557753 65597 SONATE-2 1 59112U 24043Q 25260.93265286 .00019787 00000-0 50986-3 0 9990 2 59112 97.5250 34.4227 0011017 115.5039 244.7347 15.39183701 85758